Santa Monica, CA

9:35 AM PDT on June 19, 2018 (GMT -0700)
Santa Monica Municipal

Weather History for KSMO - October, 2017

Change the Weather History Date:

Saturday, October 7, 2017

  Actual Average Record
Temperature  
Mean Temperature 74 °F -  
Max Temperature 84 °F 79 °F 97 °F (1951)
Min Temperature 64 °F 60 °F 49 °F (1941)
Cooling Degree Days 9    
Growing Degree Days 24 (Base 50)    
Moisture  
Dew Point 50 °F    
Average Humidity 50    
Maximum Humidity 93    
Minimum Humidity 25    
Precipitation  
Precipitation 0.00 in - - ()
Sea Level Pressure  
Sea Level Pressure 29.79 in    
Wind  
Wind Speed 4 mph (SSW)    
Max Wind Speed 9 mph    
Max Gust Speed -    
Visibility 10 miles    
Events      
Averages and records for this station are not official NWS values.
T = Trace of Precipitation, MM = Missing Value Source: NWS Daily Summary

Daily Weather History Graph

Daily Weather History Graph

Search for Another Location

Airport or City:

Astronomy

Oct. 07, 2017 Rise Set
Actual Time 6:52 AM PDT 6:29 PM PDT
Civil Twilight 6:27 AM PDT 6:54 PM PDT
Nautical Twilight 5:58 AM PDT 7:23 PM PDT
Astronomical Twilight 5:29 AM PDT 7:52 PM PDT
Moon 8:15 PM PDT (10/7) 8:48 AM PDT (10/7)
Length of Visible Light 12h 26m
Length of Day
11h 36m
Waning Gibbous, 95% of the Moon is Illuminated
Oct 7
Waning Gibbous
Oct 12
Last Quarter
Oct 19
New
Oct 27
First Quarter
Nov 3
Full

Hourly Weather History & Observations

Time (PDT) Temp. Heat Index Dew Point Humidity Pressure Visibility Wind Dir Wind Speed Gust Speed Precip Events Conditions
12:51 AM 68.0 °F - 54.0 °F 61% 29.84 in 10.0 mi NNE 3.5 mph - N/A   Clear
1:51 AM 66.0 °F - 52.0 °F 60% 29.83 in 10.0 mi NE 4.6 mph - N/A   Clear
2:51 AM 66.9 °F - 46.0 °F 47% 29.82 in 10.0 mi ENE 5.8 mph - N/A   Clear
3:51 AM 64.9 °F - 43.0 °F 45% 29.81 in 10.0 mi NE 4.6 mph - N/A   Clear
4:51 AM 64.0 °F - 43.0 °F 46% 29.81 in 10.0 mi NE 4.6 mph - N/A   Clear
5:51 AM 64.0 °F - 39.9 °F 41% 29.82 in 10.0 mi East 5.8 mph - N/A   Clear
6:51 AM 64.0 °F - 36.0 °F 35% 29.82 in 10.0 mi NE 4.6 mph - N/A   Clear
7:51 AM 66.9 °F - 35.1 °F 31% 29.82 in 10.0 mi NE 3.5 mph - N/A   Clear
8:51 AM 73.0 °F - 41.0 °F 31% 29.83 in 10.0 mi Calm Calm - N/A   Clear
9:51 AM 78.1 °F - 45.0 °F 31% 29.84 in 10.0 mi SSW 4.6 mph - N/A   Clear
10:51 AM 81.0 °F - 46.0 °F 29% 29.83 in 10.0 mi SSW 4.6 mph - N/A   Clear
11:51 AM 82.0 °F - 50.0 °F 33% 29.82 in 10.0 mi WSW 4.6 mph - N/A   Clear
12:51 PM 84.0 °F - 44.1 °F 25% 29.80 in 10.0 mi SSW 6.9 mph - N/A   Clear
1:51 PM 82.9 °F - 46.9 °F 28% 29.78 in 10.0 mi West 6.9 mph - N/A   Clear
2:51 PM 80.1 °F 79.9 °F 53.1 °F 39% 29.76 in 10.0 mi SW 9.2 mph - N/A   Clear
3:51 PM 80.1 °F - 50.0 °F 35% 29.75 in 10.0 mi SW 8.1 mph - N/A   Clear
4:51 PM 78.1 °F - 51.1 °F 39% 29.74 in 10.0 mi SW 9.2 mph - N/A   Clear
5:51 PM 75.9 °F - 54.0 °F 46% 29.73 in 10.0 mi SW 5.8 mph - N/A   Clear
6:51 PM 70.0 °F - 61.0 °F 73% 29.73 in 10.0 mi SW 3.5 mph - N/A   Clear
7:51 PM 69.1 °F - 62.1 °F 78% 29.73 in 10.0 mi SW 3.5 mph - N/A   Clear
8:51 PM 68.0 °F - 63.0 °F 84% 29.73 in 10.0 mi South 3.5 mph - N/A   Clear
9:51 PM 68.0 °F - 63.0 °F 84% 29.74 in 10.0 mi Calm Calm - N/A   Clear
10:51 PM 64.9 °F - 62.1 °F 90% 29.75 in 10.0 mi Calm Calm - N/A   Clear
11:51 PM 64.9 °F - 63.0 °F 93% 29.74 in 9.0 mi Calm Calm - N/A   Clear